When you browse on this site, cookies collect data to enhance your experience and personalize the content and advertising you see.
Visit our Privacy Policy to learn more. By continuing to use the site, you agree to this use of cookies and data.
  • In Hungary
  • List of Countries
  • For 7 days
  • Water Temperature
  • Satellite Maps
  • Weather Map
  • News
  • Weather Widgets
  • user-avatar
    Login

    Hourly Weather Aktau

    Today, 11 December, Tuesday

    Time Temperature Precipitation Wind Pressure Humidity
    00:00 +6°C° 0 mm 9 mps 761 mmHg 70%
    01:00 +6°C° 0 mm 9 mps 761 mmHg 68%
    02:00 +5°C° 0 mm 9 mps 760 mmHg 66%
    03:00 +5°C° 0 mm 10 mps 760 mmHg 64%
    04:00 +5°C° 0 mm 10 mps 760 mmHg 62%
    05:00 +5°C° 0 mm 10 mps 760 mmHg 59%
    06:00 +3°C° 0 mm 10 mps 760 mmHg 57%
    07:00 +5°C° 0 mm 10 mps 760 mmHg 56%
    08:00 +4°C° 0 mm 11 mps 760 mmHg 56%
    09:00 +4°C° 0 mm 11 mps 760 mmHg 55%
    10:00 +7°C° 0 mm 11 mps 760 mmHg 54%
    11:00 +8°C° 0 mm 12 mps 759 mmHg 54%
    12:00 +9°C° 0 mm 12 mps 759 mmHg 54%
    13:00 +9°C° 0 mm 12 mps 759 mmHg 54%
    14:00 +9°C° 0 mm 12 mps 758 mmHg 54%
    15:00 +11°C° 0 mm 11 mps 758 mmHg 54%
    16:00 +9°C° 0 mm 11 mps 758 mmHg 56%
    17:00 +9°C° 0 mm 11 mps 758 mmHg 58%
    18:00 +8°C° 0 mm 11 mps 757 mmHg 60%
    19:00 +8°C° 0 mm 12 mps 757 mmHg 61%
    20:00 +7°C° 0 mm 13 mps 757 mmHg 63%
    21:00 +7°C° 0 mm 13 mps 756 mmHg 64%
    22:00 +7°C° 0 mm 13 mps 756 mmHg 65%
    23:00 +5°C° 0 mm 13 mps 756 mmHg 66%

    Tomorrow, 12 December, Wednesday

    Time Temperature Precipitation Wind Pressure Humidity
    00:00 +5°C° 0 mm 13 mps 755 mmHg 68%
    01:00 +5°C° 0 mm 13 mps 755 mmHg 68%
    02:00 +5°C° 0 mm 13 mps 755 mmHg 68%
    03:00 +5°C° 0 mm 13 mps 755 mmHg 68%
    04:00 +5°C° 0 mm 12 mps 755 mmHg 68%
    05:00 +6°C° 0 mm 11 mps 755 mmHg 68%
    06:00 +6°C° 0 mm 11 mps 755 mmHg 68%
    07:00 +6°C° 0 mm 10 mps 756 mmHg 67%
    08:00 +7°C° 0 mm 9 mps 756 mmHg 67%
    09:00 +7°C° 0 mm 8 mps 757 mmHg 66%
    10:00 +9°C° 0 mm 8 mps 756 mmHg 66%
    11:00 +9°C° 0 mm 8 mps 756 mmHg 66%
    12:00 +10°C° 0 mm 8 mps 756 mmHg 66%
    13:00 +10°C° 0 mm 6 mps 756 mmHg 71%
    14:00 +11°C° 0 mm 4 mps 756 mmHg 75%
    15:00 +12°C° 0 mm 2 mps 756 mmHg 80%
    16:00 +12°C° 0 mm 2 mps 756 mmHg 81%
    17:00 +10°C° 0 mm 2 mps 756 mmHg 82%
    18:00 +9°C° 0 mm 2 mps 756 mmHg 84%
    19:00 +9°C° 0 mm 2 mps 756 mmHg 81%
    20:00 +9°C° 0 mm 2 mps 756 mmHg 79%
    21:00 +10°C° 0 mm 1 mps 756 mmHg 77%
    22:00 +9°C° 0 mm 2 mps 756 mmHg 76%
    23:00 +8°C° 0 mm 2 mps 756 mmHg 74%

    Day after tomorrow, 13 December, Thursday

    Time Temperature Precipitation Wind Pressure Humidity
    00:00 +8°C° 0 mm 2 mps 756 mmHg 73%
    01:00 +8°C° 0 mm 3 mps 756 mmHg 76%
    02:00 +8°C° 0 mm 3 mps 755 mmHg 79%
    03:00 +7°C° 0 mm 4 mps 755 mmHg 82%
    04:00 +7°C° 0 mm 4 mps 755 mmHg 86%
    05:00 +7°C° 0 mm 4 mps 755 mmHg 90%
    06:00 +6°C° 0 mm 5 mps 754 mmHg 94%
    07:00 +7°C° 0 mm 4 mps 755 mmHg 89%
    08:00 +8°C° 0 mm 4 mps 755 mmHg 84%
    09:00 +8°C° 0 mm 4 mps 755 mmHg 80%
    10:00 +10°C° 0.1 mm 3 mps 755 mmHg 75%
    11:00 +11°C° 0.1 mm 3 mps 755 mmHg 70%
    12:00 +12°C° 0.1 mm 3 mps 755 mmHg 64%
    13:00 +11°C° 0.1 mm 4 mps 755 mmHg 70%
    14:00 +10°C° 0.1 mm 5 mps 756 mmHg 76%
    15:00 +9°C° 0.1 mm 7 mps 756 mmHg 82%
    16:00 +7°C° 0 mm 8 mps 757 mmHg 83%
    17:00 +6°C° 0 mm 9 mps 757 mmHg 84%
    18:00 +5°C° 0 mm 10 mps 758 mmHg 85%
    19:00 +5°C° 0 mm 10 mps 759 mmHg 83%
    20:00 +5°C° 0 mm 10 mps 760 mmHg 81%
    21:00 +3°C° 0 mm 11 mps 760 mmHg 79%
    22:00 +3°C° 0 mm 11 mps 761 mmHg 79%
    23:00 +3°C° 0 mm 11 mps 761 mmHg 79%

    14 December, Friday

    Time Temperature Precipitation Wind Pressure Humidity
    00:00 +3°C° 0 mm 11 mps 762 mmHg 78%
    01:00 +3°C° 0 mm 11 mps 762 mmHg 78%
    02:00 +3°C° 0 mm 11 mps 763 mmHg 77%
    03:00 +3°C° 0 mm 11 mps 763 mmHg 76%
    04:00 +2°C° 0 mm 10 mps 764 mmHg 75%
    05:00 +2°C° 0 mm 10 mps 764 mmHg 74%
    06:00 +2°C° 0 mm 10 mps 765 mmHg 73%
    07:00 +2°C° 0 mm 9 mps 765 mmHg 73%
    08:00 +2°C° 0 mm 9 mps 766 mmHg 73%
    09:00 +2°C° 0 mm 9 mps 766 mmHg 72%
    10:00 +3°C° 0 mm 9 mps 766 mmHg 70%
    11:00 +4°C° 0 mm 8 mps 766 mmHg 68%
    12:00 +4°C° 0 mm 8 mps 766 mmHg 66%
    13:00 +4°C° 0 mm 7 mps 766 mmHg 67%
    14:00 +4°C° 0 mm 7 mps 766 mmHg 67%
    15:00 +4°C° 0 mm 6 mps 766 mmHg 67%
    16:00 +5°C° 0 mm 5 mps 766 mmHg 69%
    17:00 +4°C° 0 mm 4 mps 766 mmHg 72%
    18:00 +4°C° 0 mm 3 mps 767 mmHg 74%
    19:00 +4°C° 0 mm 3 mps 767 mmHg 75%
    20:00 +3°C° 0 mm 3 mps 767 mmHg 76%
    21:00 +4°C° 0 mm 2 mps 766 mmHg 77%
    22:00 +4°C° 0 mm 2 mps 766 mmHg 77%
    23:00 +5°C° 0 mm 1 mps 766 mmHg 78%

    15 December, Saturday

    Time Temperature Precipitation Wind Pressure Humidity
    00:00 +4°C° 0 mm 1 mps 766 mmHg 79%
    01:00 +4°C° 0 mm 1 mps 766 mmHg 79%
    02:00 +5°C° 0 mm 1 mps 766 mmHg 79%
    03:00 +5°C° 0 mm 1 mps 766 mmHg 78%
    04:00 +5°C° 0 mm 1 mps 766 mmHg 79%
    05:00 +5°C° 0 mm 1 mps 766 mmHg 79%
    06:00 +4°C° 0 mm 1 mps 766 mmHg 80%
    07:00 +5°C° 0 mm 1 mps 767 mmHg 76%
    08:00 +5°C° 0 mm 2 mps 767 mmHg 72%
    09:00 +5°C° 0 mm 2 mps 768 mmHg 68%
    10:00 +6°C° 0 mm 2 mps 768 mmHg 65%
    11:00 +7°C° 0 mm 1 mps 768 mmHg 62%
    12:00 +8°C° 0 mm 1 mps 768 mmHg 58%
    13:00 +8°C° 0 mm 1 mps 768 mmHg 56%
    14:00 +7°C° 0 mm 2 mps 768 mmHg 54%
    15:00 +7°C° 0 mm 2 mps 769 mmHg 51%
    16:00 +5°C° 0 mm 3 mps 769 mmHg 54%
    17:00 +4°C° 0 mm 3 mps 770 mmHg 56%
    18:00 +4°C° 0 mm 3 mps 770 mmHg 58%
    19:00 +3°C° 0 mm 3 mps 770 mmHg 61%
    20:00 +3°C° 0 mm 3 mps 771 mmHg 63%
    21:00 +2°C° 0 mm 3 mps 771 mmHg 65%
    22:00 +2°C° 0 mm 3 mps 771 mmHg 67%
    23:00 +2°C° 0 mm 3 mps 771 mmHg 69%

    16 December, Sunday

    Time Temperature Precipitation Wind Pressure Humidity
    00:00 +2°C° 0 mm 3 mps 771 mmHg 71%
    01:00 +1°C° 0 mm 3 mps 771 mmHg 73%
    02:00 +1°C° 0 mm 3 mps 772 mmHg 75%
    03:00 +1°C° 0 mm 3 mps 772 mmHg 76%
    04:00 +2°C° 0 mm 2 mps 772 mmHg 78%
    05:00 +1°C° 0 mm 2 mps 772 mmHg 79%
    06:00 +1°C° 0 mm 2 mps 772 mmHg 80%
    07:00 +2°C° 0 mm 2 mps 772 mmHg 77%
    08:00 +3°C° 0 mm 1 mps 773 mmHg 73%
    09:00 +4°C° 0 mm 1 mps 773 mmHg 69%
    10:00 +5°C° 0 mm 1 mps 773 mmHg 66%
    11:00 +5°C° 0 mm 1 mps 773 mmHg 63%
    12:00 +6°C° 0 mm 1 mps 772 mmHg 60%
    13:00 +6°C° 0 mm 1 mps 772 mmHg 60%
    14:00 +6°C° 0 mm 1 mps 772 mmHg 59%
    15:00 +6°C° 0 mm 1 mps 772 mmHg 58%
    16:00 +5°C° 0 mm 2 mps 772 mmHg 61%
    17:00 +4°C° 0 mm 2 mps 772 mmHg 64%
    18:00 +2°C° 0 mm 3 mps 772 mmHg 67%
    19:00 +2°C° 0 mm 3 mps 772 mmHg 68%
    20:00 +2°C° 0 mm 3 mps 772 mmHg 69%
    21:00 +1°C° 0 mm 3 mps 772 mmHg 70%
    22:00 0°C° 0 mm 4 mps 772 mmHg 70%
    23:00 0°C° 0 mm 4 mps 772 mmHg 71%
    Show more